Home   Weather   Syktyvkar   Past weeks

Flag for Russia Past Weather in Syktyvkar, Russia — Yesterday and Last 2 Weeks

Now
7 °F

Snow flurries. Passing clouds.


Feels Like: -6 °F
Forecast: -17 / -10 °F
Wind: 8 mph from Northeast

Location: Syktyvkar Airport

Current Time: Jan 24, 2017 at 6:29:44 am

Latest Report: Jan 24, 2017 at 5:30 am


Visibility: N/A

Pressure: 29.59 "Hg

Humidity: 85%

Dew Point: 3 °F

Location of SyktyvkarLocation

Past Weather in Syktyvkar — Graph

°F

Syktyvkar Temperature Yesterday

Maximum temperature yesterday: 21 °F (at 7:30 am)
Minimum temperature yesterday: 14 °F (at 8:30 pm)
Average temperature yesterday: 19 °F

High & Low Weather Summary for the Past Weeks

 TemperatureHumidityPressure
High28 °F (Jan 19, 10:30 pm)100% (Jan 11, 3:30 pm)30.45 "Hg (Jan 11, 3:30 pm)
Low-4 °F (Jan 9, 5:00 am)65% (Jan 9, 3:30 pm)28.94 "Hg (Jan 20, 8:00 am)
Average17 °F88%29.78 "Hg
* Reported Jan 9 5:00 am — Jan 24 5:00 am, Syktyvkar, Weather by CustomWeather, © 2017

Note: Actual official high and low records may vary slightly from our data, if they occured in-between our weather recording intervals... More about our weather records

Advertising

Syktyvkar Weather History for the Previous 24 Hours

Scroll right to see more
 ConditionsComfort  
Time TempWeatherWind HumidityBarometerVisibility
5:00 am
Tue, Jan 24
10 °FSnow flurries. Passing clouds.8 mph85%29.56 "Hg4 mi
4:30 am12 °FSnow flurries. Passing clouds.6 mph85%29.56 "Hg6 mi
4:00 am12 °FSnow flurries. Passing clouds.6 mph92%29.56 "Hg2 mi
3:30 am14 °FSnow flurries. Passing clouds.6 mph85%29.53 "Hg5 mi
3:00 am16 °FSnow flurries. Passing clouds.3 mph86%29.53 "Hg6 mi
2:30 am16 °FSnow flurries. Passing clouds.3 mph86%29.53 "HgN/A
2:00 am16 °FSnow flurries. Passing clouds.3 mph86%29.50 "Hg4 mi
1:30 am14 °FSnow flurries. Passing clouds.3 mph92%29.50 "Hg6 mi
1:00 am16 °FSnow flurries. Passing clouds.6 mph86%29.50 "Hg6 mi
12:30 am16 °FSnow flurries. Passing clouds.6 mph86%29.50 "Hg5 mi
12:00 am16 °FSnow flurries. Passing clouds.6 mph86%29.50 "Hg1 mi
11:30 pm
Mon, Jan 23
16 °FSnow showers. Passing clouds.6 mph86%29.50 "Hg1 mi
11:00 pm16 °FSnow showers. Passing clouds.6 mph86%29.47 "Hg1 mi
10:30 pm16 °FSnow flurries. Passing clouds.6 mph86%29.47 "Hg2 mi
10:00 pm16 °FSnow flurries. Passing clouds.6 mph86%29.47 "Hg1 mi
9:30 pm16 °FSnow flurries. Passing clouds.8 mph86%29.47 "Hg3 mi
9:00 pm14 °FPassing clouds.8 mph92%29.47 "HgN/A
8:30 pm14 °FPassing clouds.8 mph92%29.47 "HgN/A
8:00 pm16 °FSnow flurries. Passing clouds.8 mph86%29.47 "HgN/A
7:30 pm16 °FPassing clouds.6 mph86%29.45 "HgN/A
7:00 pm18 °FPassing clouds.8 mph79%29.45 "HgN/A
6:30 pm18 °FPassing clouds.8 mph79%29.45 "HgN/A
5:30 pm19 °FSnow flurries. Passing clouds.8 mph79%29.45 "Hg6 mi
5:00 pm21 °FSnow flurries. Passing clouds.8 mph80%29.45 "Hg1 mi
4:30 pm21 °FSnow flurries. Passing clouds.6 mph86%29.42 "HgN/A
4:00 pm21 °FCold.3 mph86%29.42 "Hg1 mi
3:30 pm21 °FSnow flurries. Passing clouds.3 mph86%29.42 "Hg6 mi
3:00 pm21 °FSnow flurries. Partly sunny.6 mph86%29.42 "Hg6 mi
2:30 pm21 °FSnow flurries. Scattered clouds.6 mph86%29.42 "Hg6 mi
2:00 pm21 °FScattered clouds.6 mph86%29.39 "HgN/A
1:30 pm21 °FSnow flurries. Partly sunny.8 mph86%29.39 "HgN/A
1:00 pm21 °FSnow flurries. Partly sunny.8 mph86%29.39 "Hg6 mi
12:30 pm21 °FScattered clouds.6 mph86%29.39 "HgN/A
12:00 pm21 °FScattered clouds.8 mph80%29.39 "HgN/A
11:30 am21 °FSnow flurries. Partly sunny.8 mph80%29.36 "Hg2 mi
11:00 am19 °FSnow flurries. Scattered clouds.8 mph86%29.36 "Hg4 mi
10:30 am19 °FSnow flurries. Partly sunny.8 mph86%29.36 "Hg2 mi
10:00 am19 °FSnow showers. Partly sunny.10 mph86%29.36 "Hg1 mi
9:30 am19 °FSnow showers. Partly sunny.10 mph93%29.36 "Hg1 mi
9:00 am21 °FSnow showers. Partly sunny.8 mph86%29.36 "Hg1 mi
8:30 am21 °FSnow flurries. Partly sunny.8 mph86%29.36 "Hg6 mi
8:00 am21 °FSnow flurries. Passing clouds.8 mph86%29.36 "Hg5 mi
7:30 am21 °FSnow flurries. Passing clouds.6 mph80%29.36 "Hg6 mi
7:00 am19 °FSnow flurries. Passing clouds.6 mph93%29.36 "Hg6 mi
6:30 am19 °FPassing clouds.8 mph86%29.36 "Hg6 mi
6:00 am19 °FSnow flurries. Passing clouds.8 mph86%29.36 "Hg6 mi
Weather by CustomWeather, © 2017

See weather overviewHow to use our weather pages